Location: Kelowna
(49.8880°N, 119.4960°W)
Time: 11:55:14
(UTC-07:00)

METEOR M2 - Pass Details

Date: 27 April 2024
Orbit: 817 x 827 km, 98.4° (Epoch: 30 May)

Event Time Altitude Azimuth Distance (km) Brightness Sun altitude
Rises 04:51:40 0° 32° (NNE) 3,360 ? -7.8°
Reaches altitude 10° 04:56:18 10° 69° (ENE) 2,418 ? -7.2°
Maximum altitude 04:57:35 11° 83° (E) 2,358 ? -7.0°
Drops below altitude 10° 04:58:52 10° 97° (E) 2,413 ? -6.8°
Sets 05:03:26 0° 134° (SE) 3,336 ? -6.2°
